Weather History for Beckley, WV

Change the Weather History Date:

Tuesday, July 30, 2013

  Actual Average Record
Temperature  
Mean Temperature 65 °F 70 °F  
Max Temperature 78 °F 80 °F 92 °F (1931)
Min Temperature 51 °F 61 °F 47 °F (1932)
Degree Days  
Heating Degree Days 0 0  
Month to date heating degree days 3 0  
Since 1 June heating degree days 10 39  
Since 1 July heating degree days 3 0  
Cooling Degree Days 0 6  
Month to date cooling degree days 205 180  
Year to date cooling degree days 397 332  
Since 1 June cooling degree days 330 291  
Growing Degree Days 14 (Base 50)    
Moisture  
Dew Point 56 °F    
Average Humidity 73    
Maximum Humidity 100    
Minimum Humidity 46    
Precipitation  
Precipitation 0.00 in 0.17 in 1.59 in (1982)
Month to date precipitation 4.45 4.86  
Year to date precipitation 24.65 26.02  
Snow  
Snow 0.00 in - - ()
Month to date snowfall 0.0  
Since 1 September snowfall 72.0  
Snow Depth 0.00 in    
Sea Level Pressure  
Sea Level Pressure 30.21 in    
Wind  
Wind Speed 2 mph (North)    
Max Wind Speed 10 mph    
Max Gust Speed 13 mph    
Visibility 10 miles    
Events      
T = Trace of Precipitation, MM = Missing Value Source: NWS Daily Summary

Daily Weather History Graph

Daily Weather History Graph

Search for Another Location

Airport:

Trip Planner

Search our weather history database for the weather conditions in past years. The results will help you decide how hot, cold, wet, or windy it might be!

Date:

Astronomy

Jul. 30, 2013 Rise Set
Actual Time 6:26 AM EDT 8:34 PM EDT
Civil Twilight 5:57 AM EDT 9:03 PM EDT
Nautical Twilight 5:21 AM EDT 9:39 PM EDT
Astronomical Twilight 4:42 AM EDT 10:18 PM EDT
Moon 12:42 AM EDT (7/30) 2:53 PM EDT (7/30)
Length of Visible Light 15h 06m
Length of Day
14h 08m
Last Quarter, 41% of the Moon is Illuminated
Jul 30
Last Quarter
Aug 6
New
Aug 14
First Quarter
Aug 20
Full
Aug 28
Last Quarter

Hourly Weather History & Observations

Time (EDT) Temp. Dew Point Humidity Pressure Visibility Wind Dir Wind Speed Gust Speed Precip Events Conditions
12:51 AM 59.0 °F 55.9 °F 90% 30.21 in 10.0 mi Calm Calm - N/A   Clear
1:51 AM 55.9 °F 55.0 °F 97% 30.22 in 10.0 mi Calm Calm - N/A   Clear
2:51 AM 55.0 °F 54.0 °F 96% 30.21 in 10.0 mi Calm Calm - N/A   Clear
3:51 AM 54.0 °F 53.1 °F 97% 30.22 in 10.0 mi Calm Calm - N/A   Clear
4:51 AM 53.1 °F 53.1 °F 100% 30.22 in 10.0 mi Calm Calm - N/A   Clear
5:51 AM 52.0 °F 52.0 °F 100% 30.23 in 10.0 mi Calm Calm - N/A   Clear
6:51 AM 51.1 °F 51.1 °F 100% 30.26 in 10.0 mi Calm Calm - N/A   Clear
7:51 AM 55.9 °F 54.0 °F 93% 30.26 in 10.0 mi Calm Calm - N/A   Clear
8:51 AM 64.0 °F 57.0 °F 78% 30.26 in 10.0 mi Calm Calm - N/A   Clear
9:51 AM 68.0 °F 57.9 °F 70% 30.26 in 10.0 mi Calm Calm - N/A   Clear
10:51 AM 71.1 °F 55.0 °F 57% 30.24 in 10.0 mi Calm Calm - N/A   Clear
11:51 AM 71.1 °F 55.0 °F 57% 30.22 in 10.0 mi Variable 4.6 mph - N/A   Clear
12:51 PM 73.9 °F 55.0 °F 52% 30.21 in 10.0 mi Calm Calm - N/A   Partly Cloudy
1:51 PM 75.0 °F 53.1 °F 46% 30.20 in 10.0 mi Calm Calm - N/A   Clear
2:51 PM 75.0 °F 54.0 °F 48% 30.19 in 10.0 mi SSE 5.8 mph - N/A   Clear
3:51 PM 77.0 °F 57.0 °F 50% 30.18 in 10.0 mi North 4.6 mph - N/A   Mostly Cloudy
4:51 PM 75.9 °F 59.0 °F 56% 30.18 in 10.0 mi NNW 6.9 mph - N/A   Clear
5:51 PM 75.0 °F 59.0 °F 57% 30.18 in 10.0 mi NNW 6.9 mph - N/A   Partly Cloudy
6:51 PM 73.9 °F 59.0 °F 59% 30.18 in 10.0 mi North 5.8 mph - N/A   Clear
7:51 PM 71.1 °F 61.0 °F 70% 30.18 in 10.0 mi NNE 4.6 mph - N/A   Clear
8:51 PM 68.0 °F 63.0 °F 84% 30.17 in 10.0 mi Calm Calm - N/A   Clear
9:51 PM 64.9 °F 61.0 °F 87% 30.17 in 10.0 mi Calm Calm - N/A   Partly Cloudy
10:51 PM 64.9 °F 62.1 °F 90% 30.17 in 10.0 mi Calm Calm - N/A   Clear
11:51 PM 64.9 °F 62.1 °F 90% 30.16 in 10.0 mi SSE 3.5 mph - N/A   Mostly Cloudy